SCP
3 3 2 2 2 1 0 0 0 0 0 0 0 0 0 0 0 0 0 0 0 0 0 0 0 0 0 0 0 0 0 0 0 0 0 0 0 0
3 3 2 1 1 1 0 0 0 0 0 0 0 0 0 0 0 0 0 0 0 0 0 0 0 0 0 0 0 0 0 0 0 0 0 0 0 0
3 3 2 1 1 1 0 0 0 0 0 0 0 0 0 0 0 0 0 0 0 0 0 0 0 0 0 0 0 0 0 0 0 0 0 0 0 0
2 3 1 0 0 0 0 0 0 0 0 0 0 0 0 0 0 0 0 0 0 0 0 0 0 0 0 0 0 0 0 0 0 0 0 0 0 0
2 2 1 1 0 0 0 0 0 0 0 0 0 0 0 0 0 0 0 0 0 0 0 0 0 0 0 0 0 0 0 0 0 0 0 0 0 0
2 2 2 1 0 0 0 0 0 0 0 0 0 0 0 0 0 0 0 0 0 0 0 0 0 0 0 0 0 0 0 0 0 0 0 0 0 0
0 0 0 0 0 0 0 0 0 0 0 0 0 0 0 0 0 0 0 0 0 0 0 0 0 0 0 0 0 0 0 0 0 0 0 0 0 0
0 0 0 0 0 0 0 0 0 0 0 0 0 0 0 0 0 0 0 0 0 0 0 0 0 0 0 0 0 0 0 0 0 0 0 0 0 0
0 0 0 0 0 0 0 0 0 0 0 0 0 0 0 0 0 0 0 0 0 0 0 0 0 0 0 0 0 0 0 0 0 0 0 0 0 0
0 0 0 0 0 0 0 0 0 0 0 0 0 0 0 0 0 0 0 0 0 0 0 0 0 0 0 0 0 0 0 0 0 0 0 0 0 0
0 0 0 0 0 0 0 0 0 0 0 0 0 0 0 0 0 0 0 0 0 0 0 0 0 0 0 0 0 0 0 0 0 0 0 0 0 0
0 0 0 0 0 0 0 0 0 0 0 0 0 0 0 0 0 0 0 0 0 0 0 0 0 0 0 0 0 0 0 0 0 0 0 0 0 0
0 0 0 0 0 0 0 0 0 0 0 0 0 0 0 0 0 0 0 0 0 0 0 0 0 0 0 0 0 0 0 0 0 0 0 0 0 0
0 0 0 0 0 0 0 0 0 0 0 0 0 0 0 0 0 0 0 0 0 0 0 0 0 0 0 0 0 0 0 0 0 0 0 0 0 0
0 0 0 0 0 0 0 0 0 0 0 0 0 0 0 0 0 0 0 0 0 0 0 0 0 0 0 0 0 0 0 0 0 0 0 0 0 0
0 0 0 0 0 0 0 0 0 0 0 0 0 0 0 0 0 0 0 0 0 0 0 0 0 0 0 0 0 0 0 0 0 0 0 0 0 0
0 0 0 0 0 0 0 0 0 0 0 0 0 0 0 0 0 0 0 0 0 0 0 0 0 0 0 0 0 0 0 0 0 0 0 0 0 0
0 0 0 0 0 0 0 0 0 0 0 0 0 0 0 0 0 0 0 0 0 0 0 0 0 0 0 0 0 0 0 0 0 0 0 0 0 0
0 0 0 0 0 0 0 0 0 0 0 0 0 0 0 0 0 0 0 0 0 0 0 0 0 0 0 0 0 0 0 0 0 0 0 0 0 0
0 0 0 0 0 0 0 0 0 0 0 0 0 0 0 0 0 0 0 0 0 0 0 0 0 0 0 0 0 0 0 0 0 0 0 0 0 0
0 0 0 0 0 0 0 0 0 0 0 0 0 0 0 0 0 0 0 0 0 0 0 0 0 0 0 0 0 0 0 0 0 0 0 0 0 0
0 0 0 0 0 0 0 0 0 0 0 0 0 0 0 0 0 0 0 0 0 0 0 0 0 0 0 0 0 0 0 0 0 0 0 0 0 0
0 0 0 0 0 0 0 0 0 0 0 0 0 0 0 0 0 0 0 0 0 0 0 0 0 0 0 0 0 0 0 0 0 0 0 0 0 0
Wind_Speed_500mb
91 89 91 92 96 81 69 59 58 54 66 59 56 49 43 39 35 42 45 47 47 51 61 69 79 80 74 66 58 53 56 53 55 60 61 59 57 53
95 90 90 91 89 77 67 57 47 59 56 66 59 50 44 47 47 47 48 48 51 52 54 64 75 83 79 72 64 59 57 54 50 54 58 61 58 57
97 101 91 93 85 73 69 61 58 65 83 68 50 42 41 37 36 38 38 46 50 52 54 60 72 86 89 76 67 63 65 60 54 50 52 57 57 55
97 103 98 94 87 76 70 78 73 65 76 77 58 52 49 40 36 37 39 43 40 46 57 58 64 82 82 89 76 71 73 67 61 59 54 50 51 53
92 99 97 95 84 99 88 78 54 69 71 66 54 49 55 46 45 44 45 48 49 46 49 57 61 73 84 92 80 78 76 73 69 66 65 62 61 61
90 93 87 84 77 90 82 74 69 75 63 62 55 52 56 49 46 44 49 51 53 55 58 57 68 77 94 94 87 83 85 78 75 80 76 71 71 72
76 73 79 81 66 64 70 76 67 61 65 57 49 53 50 50 52 54 56 52 65 61 61 56 59 70 93 88 82 85 88 89 74 70 72 77 79 76
70 76 78 77 71 71 69 71 68 64 62 57 64 53 54 50 42 49 55 52 78 72 74 74 75 83 90 91 86 88 87 84 88 81 78 80 80 87
66 72 72 70 65 62 73 71 62 59 59 57 55 55 55 46 50 51 56 55 60 70 66 70 77 77 84 89 93 94 93 93 88 79 92 83 86 86
57 60 64 66 63 66 65 60 58 49 40 39 42 44 46 50 51 50 52 58 63 63 64 64 60 55 61 70 87 94 91 85 95 95 89 84 97 100
38 30 30 56 51 50 48 49 45 37 28 26 25 29 33 37 43 47 52 52 56 56 55 60 56 52 46 47 47 54 71 86 75 79 84 76 91 93
52 48 33 26 32 26 35 40 41 32 26 22 18 20 26 31 36 38 42 50 57 49 54 56 59 63 37 40 42 41 43 51 48 54 67 68 77 65
72 65 60 40 39 33 28 27 29 28 25 20 17 12 7 11 17 28 33 38 45 51 45 59 65 68 40 53 51 48 49 51 52 56 56 59 61 59
70 65 58 52 52 48 45 42 39 31 28 29 25 21 15 11 8 8 17 28 37 40 36 49 60 75 68 55 60 50 42 39 40 42 41 39 41 43
55 51 45 43 48 48 45 43 38 32 29 30 35 33 29 24 18 12 8 8 13 19 27 41 46 68 56 58 64 58 48 36 31 31 34 36 39 40
40 40 40 40 40 38 35 34 34 32 31 33 32 28 24 24 24 20 17 17 15 19 15 20 31 36 54 32 43 55 49 35 39 34 34 35 33 28
39 37 38 38 36 35 33 32 30 28 28 27 24 21 19 19 22 18 17 18 23 28 27 24 21 24 31 33 44 51 47 35 35 35 33 35 35 36
31 40 44 43 42 39 35 30 26 26 25 21 19 18 18 19 19 15 16 19 25 29 31 29 27 30 33 33 35 42 36 30 29 32 27 26 27 28
38 40 39 37 36 32 28 26 25 22 16 14 13 13 14 14 14 13 15 15 22 25 27 29 30 28 35 40 37 34 31 31 26 25 26 23 17 22
40 40 36 32 29 26 22 21 17 12 11 11 7 7 8 8 7 9 9 10 13 17 19 18 17 19 23 24 27 31 29 21 20 20 25 26 25 28
32 31 29 27 25 22 20 18 15 13 11 6 5 3 3 5 8 12 13 11 9 10 9 9 11 13 16 18 19 26 24 23 19 22 22 20 20 22
27 23 22 20 19 19 20 19 18 15 12 6 2 1 0 2 7 11 14 14 14 9 5 6 13 18 21 20 19 20 19 19 19 20 20 19 17 16
44 32 26 26 24 21 18 20 21 17 13 12 11 5 6 6 6 11 14 13 11 10 6 9 13 14 16 16 15 14 11 8 15 14 12 9 7 12
Wind_Direction_500mb
242 241 238 239 240 236 234 234 222 219 230 235 240 241 238 233 238 237 242 239 239 238 237 238 231 230 229 229 229 231 233 235 227 220 224 224 227 227
243 240 240 238 240 230 226 224 220 226 239 241 237 250 246 245 247 248 250 247 246 240 238 235 230 230 228 227 229 229 227 231 235 235 230 226 228 228
237 237 234 234 232 226 209 204 221 238 248 238 240 249 243 239 234 239 245 252 243 245 241 235 234 234 229 223 224 225 226 229 233 236 234 232 231 228
232 232 233 226 228 214 223 236 240 221 225 235 241 239 239 239 244 248 255 246 254 249 245 238 231 230 227 224 226 222 224 228 229 230 232 234 232 231
228 231 227 228 231 224 223 228 226 228 233 231 233 234 239 241 237 245 251 252 260 254 251 233 235 234 233 229 224 222 223 227 228 230 230 231 232 236
229 226 229 232 233 227 226 225 219 221 223 229 233 230 230 236 244 248 259 256 255 259 255 245 239 236 232 228 226 218 223 226 231 233 231 230 235 239
221 220 228 234 235 222 215 214 215 209 215 212 223 229 231 230 243 257 259 257 258 255 245 254 243 241 231 227 226 217 222 225 225 232 240 241 242 238
216 219 224 228 222 206 206 214 210 211 216 222 225 230 243 249 250 249 254 263 249 249 240 250 242 232 227 226 228 223 227 229 229 226 231 238 239 243
204 201 212 201 206 211 204 201 211 222 220 225 236 241 235 232 243 244 253 250 263 248 244 228 225 224 223 223 227 226 227 233 235 228 232 237 242 243
170 176 182 193 192 198 208 207 208 219 225 237 234 235 234 231 233 241 246 255 254 249 238 218 216 216 217 219 223 228 236 236 236 241 225 230 241 236
137 147 162 173 174 179 185 191 188 185 197 223 226 233 235 231 233 239 242 245 240 239 230 223 212 209 205 210 214 222 231 233 229 233 231 240 242 232
83 78 79 96 131 148 155 158 161 150 161 180 210 228 230 230 225 232 237 241 237 231 223 217 212 207 179 193 199 195 197 205 212 218 211 217 208 207
76 73 67 69 70 80 113 111 114 117 129 141 157 157 171 209 212 218 224 228 233 232 230 217 206 198 188 184 187 190 192 193 198 200 205 208 214 218
75 76 78 79 80 75 71 73 77 83 96 104 105 102 107 107 117 169 204 217 223 229 233 219 217 208 206 187 180 188 193 196 198 198 199 202 204 201
71 74 76 76 76 82 83 82 80 77 75 76 75 75 76 77 75 91 123 167 193 212 213 212 218 215 214 205 195 184 179 182 186 191 192 194 201 197
61 63 63 65 66 68 72 76 78 79 79 79 80 79 78 82 81 77 94 109 130 131 155 197 208 208 212 208 209 193 194 188 193 196 199 200 194 188
60 65 66 64 65 66 67 67 71 74 71 69 73 79 82 85 89 89 93 108 117 119 124 128 148 177 185 188 185 192 190 195 197 195 193 197 198 195
41 49 51 52 53 53 54 58 61 63 63 65 68 70 71 77 83 97 107 114 121 125 126 129 142 152 156 163 180 180 187 193 191 202 208 208 217 219
44 44 44 43 42 38 38 42 45 46 51 61 70 75 70 70 81 91 103 131 138 143 144 148 152 156 157 155 166 182 194 199 206 209 213 216 213 214
43 41 39 35 36 33 32 36 36 38 45 51 62 79 96 99 95 93 95 105 129 152 159 167 174 180 182 186 182 189 199 210 212 210 207 214 213 215
40 35 31 28 23 23 20 10 10 10 10 18 57 46 91 135 173 163 161 153 167 170 172 186 188 184 183 183 182 184 197 208 219 219 225 227 229 220
20 9 7 8 4 355 347 347 343 341 327 338 19 207 174 209 171 168 184 191 192 217 227 191 174 176 186 190 183 188 193 204 207 211 216 219 217 214
11 5 347 343 348 341 317 322 329 335 331 334 321 264 214 241 244 219 204 204 218 231 217 169 182 179 176 179 188 183 187 190 188 188 192 201 203 226
Wind_Speed_850mb
91 89 91 92 96 81 69 59 58 54 66 59 56 49 43 39 35 42 45 47 47 51 61 69 79 80 74 66 58 53 56 53 55 60 61 59 57 53
95 90 90 91 89 77 67 57 47 59 56 66 59 50 44 47 47 47 48 48 51 52 54 64 75 83 79 72 64 59 57 54 50 54 58 61 58 57
97 101 91 93 85 73 69 61 58 65 83 68 50 42 41 37 36 38 38 46 50 52 54 60 72 86 89 76 67 63 65 60 54 50 52 57 57 55
97 103 98 94 87 76 70 78 73 65 76 77 58 52 49 40 36 37 39 43 40 46 57 58 64 82 82 89 76 71 73 67 61 59 54 50 51 53
92 99 97 95 84 99 88 78 54 69 71 66 54 49 55 46 45 44 45 48 49 46 49 57 61 73 84 92 80 78 76 73 69 66 65 62 61 61
90 93 87 84 77 90 82 74 69 75 63 62 55 52 56 49 46 44 49 51 53 55 58 57 68 77 94 94 87 83 85 78 75 80 76 71 71 72
76 73 79 81 66 64 70 76 67 61 65 57 49 53 50 50 52 54 56 52 65 61 61 56 59 70 93 88 82 85 88 89 74 70 72 77 79 76
70 76 78 77 71 71 69 71 68 64 62 57 64 53 54 50 42 49 55 52 78 72 74 74 75 83 90 91 86 88 87 84 88 81 78 80 80 87
66 72 72 70 65 62 73 71 62 59 59 57 55 55 55 46 50 51 56 55 60 70 66 70 77 77 84 89 93 94 93 93 88 79 92 83 86 86
57 60 64 66 63 66 65 60 58 49 40 39 42 44 46 50 51 50 52 58 63 63 64 64 60 55 61 70 87 94 91 85 95 95 89 84 97 100
38 30 30 56 51 50 48 49 45 37 28 26 25 29 33 37 43 47 52 52 56 56 55 60 56 52 46 47 47 54 71 86 75 79 84 76 91 93
52 48 33 26 32 26 35 40 41 32 26 22 18 20 26 31 36 38 42 50 57 49 54 56 59 63 37 40 42 41 43 51 48 54 67 68 77 65
72 65 60 40 39 33 28 27 29 28 25 20 17 12 7 11 17 28 33 38 45 51 45 59 65 68 40 53 51 48 49 51 52 56 56 59 61 59
70 65 58 52 52 48 45 42 39 31 28 29 25 21 15 11 8 8 17 28 37 40 36 49 60 75 68 55 60 50 42 39 40 42 41 39 41 43
55 51 45 43 48 48 45 43 38 32 29 30 35 33 29 24 18 12 8 8 13 19 27 41 46 68 56 58 64 58 48 36 31 31 34 36 39 40
40 40 40 40 40 38 35 34 34 32 31 33 32 28 24 24 24 20 17 17 15 19 15 20 31 36 54 32 43 55 49 35 39 34 34 35 33 28
39 37 38 38 36 35 33 32 30 28 28 27 24 21 19 19 22 18 17 18 23 28 27 24 21 24 31 33 44 51 47 35 35 35 33 35 35 36
31 40 44 43 42 39 35 30 26 26 25 21 19 18 18 19 19 15 16 19 25 29 31 29 27 30 33 33 35 42 36 30 29 32 27 26 27 28
38 40 39 37 36 32 28 26 25 22 16 14 13 13 14 14 14 13 15 15 22 25 27 29 30 28 35 40 37 34 31 31 26 25 26 23 17 22
40 40 36 32 29 26 22 21 17 12 11 11 7 7 8 8 7 9 9 10 13 17 19 18 17 19 23 24 27 31 29 21 20 20 25 26 25 28
32 31 29 27 25 22 20 18 15 13 11 6 5 3 3 5 8 12 13 11 9 10 9 9 11 13 16 18 19 26 24 23 19 22 22 20 20 22
27 23 22 20 19 19 20 19 18 15 12 6 2 1 0 2 7 11 14 14 14 9 5 6 13 18 21 20 19 20 19 19 19 20 20 19 17 16
44 32 26 26 24 21 18 20 21 17 13 12 11 5 6 6 6 11 14 13 11 10 6 9 13 14 16 16 15 14 11 8 15 14 12 9 7 12
Wind_Direction_850mb
242 241 238 239 240 236 234 234 222 219 230 235 240 241 238 233 238 237 242 239 239 238 237 238 231 230 229 229 229 231 233 235 227 220 224 224 227 227
243 240 240 238 240 230 226 224 220 226 239 241 237 250 246 245 247 248 250 247 246 240 238 235 230 230 228 227 229 229 227 231 235 235 230 226 228 228
237 237 234 234 232 226 209 204 221 238 248 238 240 249 243 239 234 239 245 252 243 245 241 235 234 234 229 223 224 225 226 229 233 236 234 232 231 228
232 232 233 226 228 214 223 236 240 221 225 235 241 239 239 239 244 248 255 246 254 249 245 238 231 230 227 224 226 222 224 228 229 230 232 234 232 231
228 231 227 228 231 224 223 228 226 228 233 231 233 234 239 241 237 245 251 252 260 254 251 233 235 234 233 229 224 222 223 227 228 230 230 231 232 236
229 226 229 232 233 227 226 225 219 221 223 229 233 230 230 236 244 248 259 256 255 259 255 245 239 236 232 228 226 218 223 226 231 233 231 230 235 239
221 220 228 234 235 222 215 214 215 209 215 212 223 229 231 230 243 257 259 257 258 255 245 254 243 241 231 227 226 217 222 225 225 232 240 241 242 238
216 219 224 228 222 206 206 214 210 211 216 222 225 230 243 249 250 249 254 263 249 249 240 250 242 232 227 226 228 223 227 229 229 226 231 238 239 243
204 201 212 201 206 211 204 201 211 222 220 225 236 241 235 232 243 244 253 250 263 248 244 228 225 224 223 223 227 226 227 233 235 228 232 237 242 243
170 176 182 193 192 198 208 207 208 219 225 237 234 235 234 231 233 241 246 255 254 249 238 218 216 216 217 219 223 228 236 236 236 241 225 230 241 236
137 147 162 173 174 179 185 191 188 185 197 223 226 233 235 231 233 239 242 245 240 239 230 223 212 209 205 210 214 222 231 233 229 233 231 240 242 232
83 78 79 96 131 148 155 158 161 150 161 180 210 228 230 230 225 232 237 241 237 231 223 217 212 207 179 193 199 195 197 205 212 218 211 217 208 207
76 73 67 69 70 80 113 111 114 117 129 141 157 157 171 209 212 218 224 228 233 232 230 217 206 198 188 184 187 190 192 193 198 200 205 208 214 218
75 76 78 79 80 75 71 73 77 83 96 104 105 102 107 107 117 169 204 217 223 229 233 219 217 208 206 187 180 188 193 196 198 198 199 202 204 201
71 74 76 76 76 82 83 82 80 77 75 76 75 75 76 77 75 91 123 167 193 212 213 212 218 215 214 205 195 184 179 182 186 191 192 194 201 197
61 63 63 65 66 68 72 76 78 79 79 79 80 79 78 82 81 77 94 109 130 131 155 197 208 208 212 208 209 193 194 188 193 196 199 200 194 188
60 65 66 64 65 66 67 67 71 74 71 69 73 79 82 85 89 89 93 108 117 119 124 128 148 177 185 188 185 192 190 195 197 195 193 197 198 195
41 49 51 52 53 53 54 58 61 63 63 65 68 70 71 77 83 97 107 114 121 125 126 129 142 152 156 163 180 180 187 193 191 202 208 208 217 219
44 44 44 43 42 38 38 42 45 46 51 61 70 75 70 70 81 91 103 131 138 143 144 148 152 156 157 155 166 182 194 199 206 209 213 216 213 214
43 41 39 35 36 33 32 36 36 38 45 51 62 79 96 99 95 93 95 105 129 152 159 167 174 180 182 186 182 189 199 210 212 210 207 214 213 215
40 35 31 28 23 23 20 10 10 10 10 18 57 46 91 135 173 163 161 153 167 170 172 186 188 184 183 183 182 184 197 208 219 219 225 227 229 220
20 9 7 8 4 355 347 347 343 341 327 338 19 207 174 209 171 168 184 191 192 217 227 191 174 176 186 190 183 188 193 204 207 211 216 219 217 214
11 5 347 343 348 341 317 322 329 335 331 334 321 264 214 241 244 219 204 204 218 231 217 169 182 179 176 179 188 183 187 190 188 188 192 201 203 226